This is the latest recevied weather packets stored in our database for station/object DL9GJ-6. If no packets are shown the sender has not sent any weather packets the latest 1 day(s).
| Time | Temp. | Humidity | Pressure | Rain* | Wind** | Luminosity | Snow |
|---|---|---|---|---|---|---|---|
| 1777981461 | 18.33° C | 69% | 1006.8 hPa | 0 mm | 0.89 m/s, 233° | 258 W/m² | - |
| 1777981102 | 18.33° C | 68% | 1006.8 hPa | 0 mm | 1.34 m/s, 284° | 330 W/m² | - |
| 1777980741 | 18.33° C | 69% | 1006.8 hPa | 0 mm | 1.79 m/s, 185° | 338 W/m² | - |
| 1777980381 | 17.78° C | 70% | 1006.7 hPa | 0 mm | 0 m/s | 289 W/m² | - |
| 1777980369 | 17.78° C | 70% | 1006.7 hPa | 0 mm | 0 m/s | 289 W/m² | - |
| 1777980021 | 17.78° C | 68% | 1006.6 hPa | 0 mm | 0.89 m/s, 270° | 245 W/m² | - |
| 1777979661 | 17.22° C | 67% | 1006.5 hPa | 0 mm | 0 m/s | 212 W/m² | - |
| 1777979651 | 17.22° C | 67% | 1006.5 hPa | 0 mm | 0 m/s | 212 W/m² | - |
| 1777979301 | 17.22° C | 67% | 1006.3 hPa | 0 mm | 0.89 m/s, 255° | 186 W/m² | - |
| 1777979289 | 17.22° C | 67% | 1006.3 hPa | 0 mm | 0.89 m/s, 255° | 186 W/m² | - |
| 1777978942 | 17.78° C | 66% | 1006.4 hPa | 0 mm | 0.45 m/s, 274° | 178 W/m² | - |
| 1777978928 | 17.78° C | 66% | 1006.4 hPa | 0 mm | 0.45 m/s, 274° | 178 W/m² | - |
| 1777978581 | 17.78° C | 68% | 1006.4 hPa | 0 mm | 0.89 m/s, 275° | 189 W/m² | - |
| 1777978569 | 17.78° C | 68% | 1006.4 hPa | 0 mm | 0.89 m/s, 275° | 189 W/m² | - |
| 1777978221 | 17.78° C | 71% | 1006.4 hPa | 0 mm | 0.45 m/s, 300° | 223 W/m² | - |
| 1777978210 | 17.78° C | 71% | 1006.4 hPa | 0 mm | 0.45 m/s, 300° | 223 W/m² | - |
| 1777977862 | 17.78° C | 72% | 1006.5 hPa | 0 mm | 0 m/s | 249 W/m² | - |
| 1777977501 | 17.22° C | 72% | 1006.6 hPa | 0 mm | 0.89 m/s, 253° | 239 W/m² | - |
| 1777977142 | 17.22° C | 74% | 1006.6 hPa | 0 mm | 0.45 m/s, 265° | 219 W/m² | - |
| 1777976781 | 17.22° C | 73% | 1006.7 hPa | 0 mm | 0 m/s | 213 W/m² | - |
| 1777976422 | 17.22° C | 71% | 1006.7 hPa | 0 mm | 0 m/s | 215 W/m² | - |
| 1777976410 | 17.22° C | 71% | 1006.7 hPa | 0 mm | 0 m/s | 215 W/m² | - |
| 1777976061 | 17.78° C | 73% | 1006.7 hPa | 0 mm | 0 m/s | 242 W/m² | - |
| 1777975701 | 17.78° C | 74% | 1006.8 hPa | 0 mm | 0 m/s | 261 W/m² | - |
| 1777975341 | 17.78° C | 73% | 1006.8 hPa | 0 mm | 0.45 m/s, 262° | 279 W/m² | - |
* Rain latest hour (hover to see other rain measurements)
** Current wind speed in m/s (hover to see current wind gust speed)